owner,sensor,date,latitude,longitude,vertical_datum,wind_speed,wind_to_direction,wind_speed_of_gust,qcFlag 
LUMCON,ioos:station:LUMCON:102:1,2015-01-01T00:45:00Z,29.1870,-90.6093,0.0,19.9,86.0,-9999.0,'1111122,1111122,1111122' 
LUMCON,ioos:station:LUMCON:102:1,2015-01-01T01:45:00Z,29.1870,-90.6093,0.0,21.9,79.0,-9999.0,'1111122,1111122,1111122' 
LUMCON,ioos:station:LUMCON:102:1,2015-01-01T02:45:00Z,29.1870,-90.6093,0.0,22.7,92.0,-9999.0,'1111122,1111122,1111122' 
LUMCON,ioos:station:LUMCON:102:1,2015-01-01T03:45:00Z,29.1870,-90.6093,0.0,23.4,107.0,-9999.0,'1111122,1111122,1111122' 
LUMCON,ioos:station:LUMCON:102:1,2015-01-01T04:45:00Z,29.1870,-90.6093,0.0,21.2,106.0,-9999.0,'1111122,1111122,1111122' 
LUMCON,ioos:station:LUMCON:102:1,2015-01-01T05:45:00Z,29.1870,-90.6093,0.0,17.2,113.0,-9999.0,'1111122,1111122,1111122' 
LUMCON,ioos:station:LUMCON:102:1,2015-01-01T06:45:00Z,29.1870,-90.6093,0.0,21.8,122.0,-9999.0,'1111122,1111122,1111122' 
LUMCON,ioos:station:LUMCON:102:1,2015-01-01T07:45:00Z,29.1870,-90.6093,0.0,23.9,122.0,-9999.0,'1111122,1111122,1111122' 
LUMCON,ioos:station:LUMCON:102:1,2015-01-01T08:45:00Z,29.1870,-90.6093,0.0,21.8,133.0,-9999.0,'1111122,1111122,1111122' 
LUMCON,ioos:station:LUMCON:102:1,2015-01-01T09:45:00Z,29.1870,-90.6093,0.0,15.5,125.0,-9999.0,'1111122,1111122,1111122' 
LUMCON,ioos:station:LUMCON:102:1,2015-01-01T10:45:00Z,29.1870,-90.6093,0.0,19.7,119.0,-9999.0,'1111122,1111122,1111122' 
LUMCON,ioos:station:LUMCON:102:1,2015-01-01T11:45:00Z,29.1870,-90.6093,0.0,17.8,123.0,-9999.0,'1111122,1111122,1111122' 
LUMCON,ioos:station:LUMCON:102:1,2015-01-01T12:45:00Z,29.1870,-90.6093,0.0,15.3,125.0,-9999.0,'1111122,1111122,1111122' 
LUMCON,ioos:station:LUMCON:102:1,2015-01-01T13:45:00Z,29.1870,-90.6093,0.0,12.6,128.0,-9999.0,'1111122,1111122,1111122' 
LUMCON,ioos:station:LUMCON:102:1,2015-01-01T14:45:00Z,29.1870,-90.6093,0.0,19.0,129.0,-9999.0,'1111122,1111122,1111122' 
LUMCON,ioos:station:LUMCON:102:1,2015-01-01T15:45:00Z,29.1870,-90.6093,0.0,15.6,122.0,-9999.0,'1111122,1111122,1111122' 
LUMCON,ioos:station:LUMCON:102:1,2015-01-01T16:45:00Z,29.1870,-90.6093,0.0,18.2,140.0,-9999.0,'1111122,1111122,1111122' 
LUMCON,ioos:station:LUMCON:102:1,2015-01-01T17:45:00Z,29.1870,-90.6093,0.0,17.8,116.0,-9999.0,'1111122,1111122,1111122' 
LUMCON,ioos:station:LUMCON:102:1,2015-01-01T18:45:00Z,29.1870,-90.6093,0.0,17.7,122.0,-9999.0,'1111122,1111122,1111122' 
LUMCON,ioos:station:LUMCON:102:1,2015-01-01T19:45:00Z,29.1870,-90.6093,0.0,16.6,119.0,-9999.0,'1111122,1111122,1111122' 
LUMCON,ioos:station:LUMCON:102:1,2015-01-01T20:45:00Z,29.1870,-90.6093,0.0,18.4,131.0,-9999.0,'1111122,1111122,1111122' 
LUMCON,ioos:station:LUMCON:102:1,2015-01-01T21:45:00Z,29.1870,-90.6093,0.0,21.0,131.0,-9999.0,'1111122,1111122,1111122' 
LUMCON,ioos:station:LUMCON:102:1,2015-01-01T22:45:00Z,29.1870,-90.6093,0.0,20.4,132.0,-9999.0,'1111122,1111122,1111122' 
LUMCON,ioos:station:LUMCON:102:1,2015-01-01T23:45:00Z,29.1870,-90.6093,0.0,20.2,132.0,-9999.0,'1111122,1111122,1111122' 
LUMCON,ioos:station:LUMCON:102:1,2015-01-02T00:45:00Z,29.1870,-90.6093,0.0,22.5,131.0,-9999.0,'1111122,1111122,1111122' 
LUMCON,ioos:station:LUMCON:102:1,2015-01-02T01:45:00Z,29.1870,-90.6093,0.0,16.3,126.0,-9999.0,'1111122,1111122,1111122' 
LUMCON,ioos:station:LUMCON:102:1,2015-01-02T02:45:00Z,29.1870,-90.6093,0.0,16.5,141.0,-9999.0,'1111122,1111122,1111122' 
LUMCON,ioos:station:LUMCON:102:1,2015-01-02T03:45:00Z,29.1870,-90.6093,0.0,17.4,136.0,-9999.0,'1111122,1111122,1111122' 
LUMCON,ioos:station:LUMCON:102:1,2015-01-02T04:45:00Z,29.1870,-90.6093,0.0,13.1,146.0,-9999.0,'1111122,1111122,1111122' 
LUMCON,ioos:station:LUMCON:102:1,2015-01-02T05:45:00Z,29.1870,-90.6093,0.0,10.6,143.0,-9999.0,'1111122,1111122,1111122' 
LUMCON,ioos:station:LUMCON:102:1,2015-01-02T06:45:00Z,29.1870,-90.6093,0.0,7.3,153.0,-9999.0,'1111122,1111122,1111122' 
LUMCON,ioos:station:LUMCON:102:1,2015-01-02T07:45:00Z,29.1870,-90.6093,0.0,8.9,134.0,-9999.0,'1111122,1111122,1111122' 
LUMCON,ioos:station:LUMCON:102:1,2015-01-02T08:45:00Z,29.1870,-90.6093,0.0,7.6,112.0,-9999.0,'1111122,1111122,1111122' 
LUMCON,ioos:station:LUMCON:102:1,2015-01-02T09:45:00Z,29.1870,-90.6093,0.0,7.3,128.0,-9999.0,'1111122,1111122,1111122' 
LUMCON,ioos:station:LUMCON:102:1,2015-01-02T10:45:00Z,29.1870,-90.6093,0.0,7.6,144.0,-9999.0,'1111122,1111122,1111122' 
LUMCON,ioos:station:LUMCON:102:1,2015-01-02T11:45:00Z,29.1870,-90.6093,0.0,5.4,145.0,-9999.0,'1111122,1111122,1111122' 
LUMCON,ioos:station:LUMCON:102:1,2015-01-02T12:45:00Z,29.1870,-90.6093,0.0,5.8,142.0,-9999.0,'1111122,1111122,1111122' 
LUMCON,ioos:station:LUMCON:102:1,2015-01-02T13:45:00Z,29.1870,-90.6093,0.0,7.2,111.0,-9999.0,'1111122,1111122,1111122' 
LUMCON,ioos:station:LUMCON:102:1,2015-01-02T14:45:00Z,29.1870,-90.6093,0.0,6.6,124.0,-9999.0,'1111122,1111122,1111122' 
LUMCON,ioos:station:LUMCON:102:1,2015-01-02T15:45:00Z,29.1870,-90.6093,0.0,6.9,161.0,-9999.0,'1111122,1111122,1111122' 
LUMCON,ioos:station:LUMCON:102:1,2015-01-02T16:45:00Z,29.1870,-90.6093,0.0,10.0,162.0,-9999.0,'1111122,1111122,1111122' 
LUMCON,ioos:station:LUMCON:102:1,2015-01-02T17:45:00Z,29.1870,-90.6093,0.0,8.5,144.0,-9999.0,'1111122,1111122,1111122' 
LUMCON,ioos:station:LUMCON:102:1,2015-01-02T18:45:00Z,29.1870,-90.6093,0.0,10.8,141.0,-9999.0,'1111122,1111122,1111122' 
LUMCON,ioos:station:LUMCON:102:1,2015-01-02T19:45:00Z,29.1870,-90.6093,0.0,11.8,160.0,-9999.0,'1111122,1111122,1111122' 
LUMCON,ioos:station:LUMCON:102:1,2015-01-02T20:45:00Z,29.1870,-90.6093,0.0,18.9,163.0,-9999.0,'1111122,1111122,1111122' 
LUMCON,ioos:station:LUMCON:102:1,2015-01-02T21:45:00Z,29.1870,-90.6093,0.0,16.7,162.0,-9999.0,'1111122,1111122,1111122' 
LUMCON,ioos:station:LUMCON:102:1,2015-01-02T22:45:00Z,29.1870,-90.6093,0.0,14.5,171.0,-9999.0,'1111122,1111122,1111122' 
LUMCON,ioos:station:LUMCON:102:1,2015-01-02T23:45:00Z,29.1870,-90.6093,0.0,14.2,165.0,-9999.0,'1111122,1111122,1111122' 
LUMCON,ioos:station:LUMCON:102:1,2015-01-03T00:45:00Z,29.1870,-90.6093,0.0,18.4,174.0,-9999.0,'1111122,1111122,1111122' 
LUMCON,ioos:station:LUMCON:102:1,2015-01-03T01:45:00Z,29.1870,-90.6093,0.0,12.7,178.0,-9999.0,'1111122,1111122,1111122' 
LUMCON,ioos:station:LUMCON:102:1,2015-01-03T02:45:00Z,29.1870,-90.6093,0.0,14.1,208.0,-9999.0,'1111122,1111122,1111122' 
LUMCON,ioos:station:LUMCON:102:1,2015-01-03T03:45:00Z,29.1870,-90.6093,0.0,12.1,183.0,-9999.0,'1111122,1111122,1111122' 
LUMCON,ioos:station:LUMCON:102:1,2015-01-03T04:45:00Z,29.1870,-90.6093,0.0,12.1,193.0,-9999.0,'1111122,1111122,1111122' 
LUMCON,ioos:station:LUMCON:102:1,2015-01-03T05:45:00Z,29.1870,-90.6093,0.0,11.2,194.0,-9999.0,'1111122,1111122,1111122' 
LUMCON,ioos:station:LUMCON:102:1,2015-01-03T06:45:00Z,29.1870,-90.6093,0.0,10.8,191.0,-9999.0,'1111122,1111122,1111122' 
LUMCON,ioos:station:LUMCON:102:1,2015-01-03T07:45:00Z,29.1870,-90.6093,0.0,10.7,215.0,-9999.0,'1111122,1111122,1111122' 
LUMCON,ioos:station:LUMCON:102:1,2015-01-03T08:45:00Z,29.1870,-90.6093,0.0,8.5,211.0,-9999.0,'1111122,1111122,1111122' 
LUMCON,ioos:station:LUMCON:102:1,2015-01-03T09:45:00Z,29.1870,-90.6093,0.0,9.2,214.0,-9999.0,'1111122,1111122,1111122' 
LUMCON,ioos:station:LUMCON:102:1,2015-01-03T10:45:00Z,29.1870,-90.6093,0.0,12.1,207.0,-9999.0,'1111122,1111122,1111122' 
LUMCON,ioos:station:LUMCON:102:1,2015-01-03T11:45:00Z,29.1870,-90.6093,0.0,16.6,220.0,-9999.0,'1111122,1111122,1111122' 
LUMCON,ioos:station:LUMCON:102:1,2015-01-03T12:45:00Z,29.1870,-90.6093,0.0,15.5,240.0,-9999.0,'1111122,1111122,1111122' 
LUMCON,ioos:station:LUMCON:102:1,2015-01-03T13:45:00Z,29.1870,-90.6093,0.0,16.4,240.0,-9999.0,'1111122,1111122,1111122' 
LUMCON,ioos:station:LUMCON:102:1,2015-01-03T14:45:00Z,29.1870,-90.6093,0.0,14.6,244.0,-9999.0,'1111122,1111122,1111122' 
LUMCON,ioos:station:LUMCON:102:1,2015-01-03T15:45:00Z,29.1870,-90.6093,0.0,15.9,244.0,-9999.0,'1111122,1111122,1111122' 
LUMCON,ioos:station:LUMCON:102:1,2015-01-03T16:45:00Z,29.1870,-90.6093,0.0,16.1,239.0,-9999.0,'1111122,1111122,1111122' 
LUMCON,ioos:station:LUMCON:102:1,2015-01-03T17:45:00Z,29.1870,-90.6093,0.0,16.5,250.0,-9999.0,'1111122,1111122,1111122' 
LUMCON,ioos:station:LUMCON:102:1,2015-01-03T18:45:00Z,29.1870,-90.6093,0.0,14.3,240.0,-9999.0,'1111122,1111122,1111122' 
LUMCON,ioos:station:LUMCON:102:1,2015-01-03T19:45:00Z,29.1870,-90.6093,0.0,15.9,235.0,-9999.0,'1111122,1111122,1111122' 
LUMCON,ioos:station:LUMCON:102:1,2015-01-03T20:45:00Z,29.1870,-90.6093,0.0,15.7,241.0,-9999.0,'1111122,1111122,1111122' 
LUMCON,ioos:station:LUMCON:102:1,2015-01-03T21:45:00Z,29.1870,-90.6093,0.0,13.0,297.0,-9999.0,'1111122,1111122,1111122' 
LUMCON,ioos:station:LUMCON:102:1,2015-01-03T23:45:00Z,29.1870,-90.6093,0.0,10.0,359.0,-9999.0,'1111122,1111122,1111122' 
LUMCON,ioos:station:LUMCON:102:1,2015-01-04T01:45:00Z,29.1870,-90.6093,0.0,7.6,1.0,-9999.0,'1111122,1111122,1111122' 
LUMCON,ioos:station:LUMCON:102:1,2015-01-04T02:45:00Z,29.1870,-90.6093,0.0,15.9,8.0,-9999.0,'1111122,1111122,1111122' 
LUMCON,ioos:station:LUMCON:102:1,2015-01-04T03:45:00Z,29.1870,-90.6093,0.0,11.1,40.0,-9999.0,'1111122,1111122,1111122' 
LUMCON,ioos:station:LUMCON:102:1,2015-01-04T04:45:00Z,29.1870,-90.6093,0.0,19.5,19.0,-9999.0,'1111122,1111122,1111122' 
LUMCON,ioos:station:LUMCON:102:1,2015-01-04T05:45:00Z,29.1870,-90.6093,0.0,19.3,14.0,-9999.0,'1111122,1111122,1111122' 
LUMCON,ioos:station:LUMCON:102:1,2015-01-04T06:45:00Z,29.1870,-90.6093,0.0,19.7,19.0,-9999.0,'1111122,1111122,1111122' 
LUMCON,ioos:station:LUMCON:102:1,2015-01-04T07:45:00Z,29.1870,-90.6093,0.0,21.0,19.0,-9999.0,'1111122,1111122,1111122' 
LUMCON,ioos:station:LUMCON:102:1,2015-01-04T08:45:00Z,29.1870,-90.6093,0.0,19.7,38.0,-9999.0,'1111122,1111122,1111122' 
LUMCON,ioos:station:LUMCON:102:1,2015-01-04T09:45:00Z,29.1870,-90.6093,0.0,20.2,30.0,-9999.0,'1111122,1111122,1111122' 
LUMCON,ioos:station:LUMCON:102:1,2015-01-04T10:45:00Z,29.1870,-90.6093,0.0,16.3,25.0,-9999.0,'1111122,1111122,1111122' 
LUMCON,ioos:station:LUMCON:102:1,2015-01-04T11:45:00Z,29.1870,-90.6093,0.0,16.4,28.0,-9999.0,'1111122,1111122,1111122' 
LUMCON,ioos:station:LUMCON:102:1,2015-01-04T12:45:00Z,29.1870,-90.6093,0.0,18.5,32.0,-9999.0,'1111122,1111122,1111122' 
LUMCON,ioos:station:LUMCON:102:1,2015-01-04T13:45:00Z,29.1870,-90.6093,0.0,15.9,16.0,-9999.0,'1111122,1111122,1111122' 
LUMCON,ioos:station:LUMCON:102:1,2015-01-04T14:45:00Z,29.1870,-90.6093,0.0,16.4,34.0,-9999.0,'1111122,1111122,1111122' 
LUMCON,ioos:station:LUMCON:102:1,2015-01-04T15:45:00Z,29.1870,-90.6093,0.0,18.4,27.0,-9999.0,'1111122,1111122,1111122' 
LUMCON,ioos:station:LUMCON:102:1,2015-01-04T16:45:00Z,29.1870,-90.6093,0.0,11.7,53.0,-9999.0,'1111122,1111122,1111122' 
LUMCON,ioos:station:LUMCON:102:1,2015-01-04T17:45:00Z,29.1870,-90.6093,0.0,12.3,63.0,-9999.0,'1111122,1111122,1111122' 
LUMCON,ioos:station:LUMCON:102:1,2015-01-04T18:45:00Z,29.1870,-90.6093,0.0,11.8,56.0,-9999.0,'1111122,1111122,1111122' 
LUMCON,ioos:station:LUMCON:102:1,2015-01-04T19:45:00Z,29.1870,-90.6093,0.0,15.0,22.0,-9999.0,'1111122,1111122,1111122' 
LUMCON,ioos:station:LUMCON:102:1,2015-01-04T20:45:00Z,29.1870,-90.6093,0.0,19.9,45.0,-9999.0,'1111122,1111122,1111122' 
LUMCON,ioos:station:LUMCON:102:1,2015-01-04T21:45:00Z,29.1870,-90.6093,0.0,25.0,67.0,-9999.0,'1111122,1111122,1111122' 
LUMCON,ioos:station:LUMCON:102:1,2015-01-04T22:45:00Z,29.1870,-90.6093,0.0,25.2,60.0,-9999.0,'1111122,1111122,1111122' 
LUMCON,ioos:station:LUMCON:102:1,2015-01-04T23:45:00Z,29.1870,-90.6093,0.0,26.0,59.0,-9999.0,'1111122,1111122,1111122' 
LUMCON,ioos:station:LUMCON:102:1,2015-01-05T00:45:00Z,29.1870,-90.6093,0.0,25.5,61.0,-9999.0,'1111122,1111122,1111122' 
LUMCON,ioos:station:LUMCON:102:1,2015-01-05T01:45:00Z,29.1870,-90.6093,0.0,24.8,50.0,-9999.0,'1111122,1111122,1111122' 
LUMCON,ioos:station:LUMCON:102:1,2015-01-05T02:45:00Z,29.1870,-90.6093,0.0,25.8,72.0,-9999.0,'1111122,1111122,1111122' 
LUMCON,ioos:station:LUMCON:102:1,2015-01-05T03:45:00Z,29.1870,-90.6093,0.0,35.0,60.0,-9999.0,'1111122,1111122,1111122' 
LUMCON,ioos:station:LUMCON:102:1,2015-01-05T04:45:00Z,29.1870,-90.6093,0.0,26.9,70.0,-9999.0,'1111122,1111122,1111122' 
LUMCON,ioos:station:LUMCON:102:1,2015-01-05T05:45:00Z,29.1870,-90.6093,0.0,21.6,88.0,-9999.0,'1111122,1111122,1111122' 
LUMCON,ioos:station:LUMCON:102:1,2015-01-05T06:45:00Z,29.1870,-90.6093,0.0,22.2,71.0,-9999.0,'1111122,1111122,1111122' 
LUMCON,ioos:station:LUMCON:102:1,2015-01-05T07:45:00Z,29.1870,-90.6093,0.0,27.1,73.0,-9999.0,'1111122,1111122,1111122' 
LUMCON,ioos:station:LUMCON:102:1,2015-01-05T08:45:00Z,29.1870,-90.6093,0.0,21.9,81.0,-9999.0,'1111122,1111122,1111122' 
LUMCON,ioos:station:LUMCON:102:1,2015-01-05T09:45:00Z,29.1870,-90.6093,0.0,18.6,81.0,-9999.0,'1111122,1111122,1111122' 
LUMCON,ioos:station:LUMCON:102:1,2015-01-05T10:45:00Z,29.1870,-90.6093,0.0,20.0,87.0,-9999.0,'1111122,1111122,1111122' 
LUMCON,ioos:station:LUMCON:102:1,2015-01-05T11:45:00Z,29.1870,-90.6093,0.0,18.3,87.0,-9999.0,'1111122,1111122,1111122' 
LUMCON,ioos:station:LUMCON:102:1,2015-01-05T12:45:00Z,29.1870,-90.6093,0.0,14.6,92.0,-9999.0,'1111122,1111122,1111122' 
LUMCON,ioos:station:LUMCON:102:1,2015-01-05T13:45:00Z,29.1870,-90.6093,0.0,10.6,87.0,-9999.0,'1111122,1111122,1111122' 
LUMCON,ioos:station:LUMCON:102:1,2015-01-05T14:45:00Z,29.1870,-90.6093,0.0,15.4,108.0,-9999.0,'1111122,1111122,1111122' 
LUMCON,ioos:station:LUMCON:102:1,2015-01-05T15:45:00Z,29.1870,-90.6093,0.0,14.2,95.0,-9999.0,'1111122,1111122,1111122' 
LUMCON,ioos:station:LUMCON:102:1,2015-01-05T16:45:00Z,29.1870,-90.6093,0.0,10.6,92.0,-9999.0,'1111122,1111122,1111122' 
LUMCON,ioos:station:LUMCON:102:1,2015-01-05T17:45:00Z,29.1870,-90.6093,0.0,10.7,84.0,-9999.0,'1111122,1111122,1111122' 
LUMCON,ioos:station:LUMCON:102:1,2015-01-05T18:45:00Z,29.1870,-90.6093,0.0,14.0,110.0,-9999.0,'1111122,1111122,1111122' 
LUMCON,ioos:station:LUMCON:102:1,2015-01-05T19:45:00Z,29.1870,-90.6093,0.0,11.2,106.0,-9999.0,'1111122,1111122,1111122' 
LUMCON,ioos:station:LUMCON:102:1,2015-01-05T20:45:00Z,29.1870,-90.6093,0.0,11.1,100.0,-9999.0,'1111122,1111122,1111122' 
LUMCON,ioos:station:LUMCON:102:1,2015-01-05T21:45:00Z,29.1870,-90.6093,0.0,9.4,109.0,-9999.0,'1111122,1111122,1111122' 
LUMCON,ioos:station:LUMCON:102:1,2015-01-05T22:45:00Z,29.1870,-90.6093,0.0,5.8,119.0,-9999.0,'1111122,1111122,1111122' 
LUMCON,ioos:station:LUMCON:102:1,2015-01-05T23:45:00Z,29.1870,-90.6093,0.0,6.0,118.0,-9999.0,'1111122,1111122,1111122' 
LUMCON,ioos:station:LUMCON:102:1,2015-01-06T00:45:00Z,29.1870,-90.6093,0.0,5.3,114.0,-9999.0,'1111122,1111122,1111122' 
LUMCON,ioos:station:LUMCON:102:1,2015-01-06T01:45:00Z,29.1870,-90.6093,0.0,0.9,102.0,-9999.0,'1111122,1111122,1111122' 
LUMCON,ioos:station:LUMCON:102:1,2015-01-06T02:45:00Z,29.1870,-90.6093,0.0,10.8,52.0,-9999.0,'1111122,1111122,1111122' 
LUMCON,ioos:station:LUMCON:102:1,2015-01-06T03:45:00Z,29.1870,-90.6093,0.0,12.7,34.0,-9999.0,'1111122,1111122,1111122' 
LUMCON,ioos:station:LUMCON:102:1,2015-01-06T04:45:00Z,29.1870,-90.6093,0.0,9.9,47.0,-9999.0,'1111122,1111122,1111122' 
LUMCON,ioos:station:LUMCON:102:1,2015-01-06T05:45:00Z,29.1870,-90.6093,0.0,9.8,49.0,-9999.0,'1111122,1111122,1111122' 
LUMCON,ioos:station:LUMCON:102:1,2015-01-06T06:45:00Z,29.1870,-90.6093,0.0,8.3,41.0,-9999.0,'1111122,1111122,1111122' 
LUMCON,ioos:station:LUMCON:102:1,2015-01-06T07:45:00Z,29.1870,-90.6093,0.0,12.5,47.0,-9999.0,'1111122,1111122,1111122' 
LUMCON,ioos:station:LUMCON:102:1,2015-01-06T08:45:00Z,29.1870,-90.6093,0.0,19.5,58.0,-9999.0,'1111122,1111122,1111122' 
LUMCON,ioos:station:LUMCON:102:1,2015-01-06T09:45:00Z,29.1870,-90.6093,0.0,13.6,81.0,-9999.0,'1111122,1111122,1111122' 
LUMCON,ioos:station:LUMCON:102:1,2015-01-06T10:45:00Z,29.1870,-90.6093,0.0,8.9,91.0,-9999.0,'1111122,1111122,1111122' 
LUMCON,ioos:station:LUMCON:102:1,2015-01-06T11:45:00Z,29.1870,-90.6093,0.0,6.6,103.0,-9999.0,'1111122,1111122,1111122' 
LUMCON,ioos:station:LUMCON:102:1,2015-01-06T12:45:00Z,29.1870,-90.6093,0.0,3.7,93.0,-9999.0,'1111122,1111122,1111122' 
LUMCON,ioos:station:LUMCON:102:1,2015-01-06T13:45:00Z,29.1870,-90.6093,0.0,5.1,78.0,-9999.0,'1111122,1111122,1111122' 
LUMCON,ioos:station:LUMCON:102:1,2015-01-06T14:45:00Z,29.1870,-90.6093,0.0,7.2,100.0,-9999.0,'1111122,1111122,1111122' 
LUMCON,ioos:station:LUMCON:102:1,2015-01-06T15:45:00Z,29.1870,-90.6093,0.0,5.9,112.0,-9999.0,'1111122,1111122,1111122' 
LUMCON,ioos:station:LUMCON:102:1,2015-01-06T16:45:00Z,29.1870,-90.6093,0.0,4.4,135.0,-9999.0,'1111122,1111122,1111122' 
LUMCON,ioos:station:LUMCON:102:1,2015-01-06T17:45:00Z,29.1870,-90.6093,0.0,3.4,138.0,-9999.0,'1111122,1111122,1111122' 
LUMCON,ioos:station:LUMCON:102:1,2015-01-06T18:45:00Z,29.1870,-90.6093,0.0,2.5,281.0,-9999.0,'1111122,1111122,1111122' 
LUMCON,ioos:station:LUMCON:102:1,2015-01-06T19:45:00Z,29.1870,-90.6093,0.0,6.6,315.0,-9999.0,'1111122,1111122,1111122' 
LUMCON,ioos:station:LUMCON:102:1,2015-01-06T20:45:00Z,29.1870,-90.6093,0.0,6.8,319.0,-9999.0,'1111122,1111122,1111122' 
LUMCON,ioos:station:LUMCON:102:1,2015-01-06T21:45:00Z,29.1870,-90.6093,0.0,4.2,332.0,-9999.0,'1111122,1111122,1111122' 
LUMCON,ioos:station:LUMCON:102:1,2015-01-06T22:45:00Z,29.1870,-90.6093,0.0,4.4,36.0,-9999.0,'1111122,1111122,1111122' 
LUMCON,ioos:station:LUMCON:102:1,2015-01-06T23:45:00Z,29.1870,-90.6093,0.0,2.5,38.0,-9999.0,'1111122,1111122,1111122' 
LUMCON,ioos:station:LUMCON:102:1,2015-01-07T00:45:00Z,29.1870,-90.6093,0.0,1.5,81.0,-9999.0,'1111122,1111122,1111122' 
LUMCON,ioos:station:LUMCON:102:1,2015-01-07T01:45:00Z,29.1870,-90.6093,0.0,1.3,137.0,-9999.0,'1111122,1111122,1111122' 
LUMCON,ioos:station:LUMCON:102:1,2015-01-07T02:45:00Z,29.1870,-90.6093,0.0,5.2,44.0,-9999.0,'1111122,1111122,1111122' 
LUMCON,ioos:station:LUMCON:102:1,2015-01-07T03:45:00Z,29.1870,-90.6093,0.0,7.3,54.0,-9999.0,'1111122,1111122,1111122' 
LUMCON,ioos:station:LUMCON:102:1,2015-01-07T04:45:00Z,29.1870,-90.6093,0.0,7.2,58.0,-9999.0,'1111122,1111122,1111122' 
LUMCON,ioos:station:LUMCON:102:1,2015-01-07T05:45:00Z,29.1870,-90.6093,0.0,4.9,66.0,-9999.0,'1111122,1111122,1111122' 
LUMCON,ioos:station:LUMCON:102:1,2015-01-07T06:45:00Z,29.1870,-90.6093,0.0,7.9,72.0,-9999.0,'1111122,1111122,1111122' 
LUMCON,ioos:station:LUMCON:102:1,2015-01-07T07:45:00Z,29.1870,-90.6093,0.0,14.2,78.0,-9999.0,'1111122,1111122,1111122' 
LUMCON,ioos:station:LUMCON:102:1,2015-01-07T08:45:00Z,29.1870,-90.6093,0.0,12.5,84.0,-9999.0,'1111122,1111122,1111122' 
LUMCON,ioos:station:LUMCON:102:1,2015-01-07T09:45:00Z,29.1870,-90.6093,0.0,12.8,70.0,-9999.0,'1111122,1111122,1111122' 
LUMCON,ioos:station:LUMCON:102:1,2015-01-07T10:45:00Z,29.1870,-90.6093,0.0,15.4,76.0,-9999.0,'1111122,1111122,1111122' 
LUMCON,ioos:station:LUMCON:102:1,2015-01-07T11:15:00Z,29.1870,-90.6093,0.0,17.4,80.0,-9999.0,'1111122,1111122,1111122' 
LUMCON,ioos:station:LUMCON:102:1,2015-01-07T12:45:00Z,29.1870,-90.6093,0.0,12.4,86.0,-9999.0,'1111122,1111122,1111122' 
LUMCON,ioos:station:LUMCON:102:1,2015-01-07T13:45:00Z,29.1870,-90.6093,0.0,6.9,91.0,-9999.0,'1111122,1111122,1111122' 
LUMCON,ioos:station:LUMCON:102:1,2015-01-07T14:45:00Z,29.1870,-90.6093,0.0,18.7,58.0,-9999.0,'1111122,1111122,1111122' 
LUMCON,ioos:station:LUMCON:102:1,2015-01-07T15:45:00Z,29.1870,-90.6093,0.0,18.6,65.0,-9999.0,'1111122,1111122,1111122' 
LUMCON,ioos:station:LUMCON:102:1,2015-01-07T16:45:00Z,29.1870,-90.6093,0.0,17.9,73.0,-9999.0,'1111122,1111122,1111122' 
LUMCON,ioos:station:LUMCON:102:1,2015-01-07T17:45:00Z,29.1870,-90.6093,0.0,25.5,72.0,-9999.0,'1111122,1111122,1111122' 
LUMCON,ioos:station:LUMCON:102:1,2015-01-07T18:45:00Z,29.1870,-90.6093,0.0,27.2,81.0,-9999.0,'1111122,1111122,1111122' 
LUMCON,ioos:station:LUMCON:102:1,2015-01-07T19:45:00Z,29.1870,-90.6093,0.0,30.3,65.0,-9999.0,'1111122,1111122,1111122' 
LUMCON,ioos:station:LUMCON:102:1,2015-01-07T20:45:00Z,29.1870,-90.6093,0.0,30.4,75.0,-9999.0,'1111122,1111122,1111122' 
LUMCON,ioos:station:LUMCON:102:1,2015-01-07T21:45:00Z,29.1870,-90.6093,0.0,30.3,63.0,-9999.0,'1111122,1111122,1111122' 
LUMCON,ioos:station:LUMCON:102:1,2015-01-07T22:45:00Z,29.1870,-90.6093,0.0,29.4,80.0,-9999.0,'1111122,1111122,1111122' 
LUMCON,ioos:station:LUMCON:102:1,2015-01-07T23:45:00Z,29.1870,-90.6093,0.0,33.0,82.0,-9999.0,'1111122,1111122,1111122' 
LUMCON,ioos:station:LUMCON:102:1,2015-01-08T00:45:00Z,29.1870,-90.6093,0.0,33.6,73.0,-9999.0,'1111122,1111122,1111122' 
LUMCON,ioos:station:LUMCON:102:1,2015-01-08T01:45:00Z,29.1870,-90.6093,0.0,28.1,75.0,-9999.0,'1111122,1111122,1111122' 
LUMCON,ioos:station:LUMCON:102:1,2015-01-08T02:45:00Z,29.1870,-90.6093,0.0,33.6,79.0,-9999.0,'1111122,1111122,1111122' 
LUMCON,ioos:station:LUMCON:102:1,2015-01-08T03:45:00Z,29.1870,-90.6093,0.0,26.6,76.0,-9999.0,'1111122,1111122,1111122' 
LUMCON,ioos:station:LUMCON:102:1,2015-01-08T04:45:00Z,29.1870,-90.6093,0.0,32.3,88.0,-9999.0,'1111122,1111122,1111122' 
LUMCON,ioos:station:LUMCON:102:1,2015-01-08T05:45:00Z,29.1870,-90.6093,0.0,24.3,88.0,-9999.0,'1111122,1111122,1111122' 
LUMCON,ioos:station:LUMCON:102:1,2015-01-08T06:45:00Z,29.1870,-90.6093,0.0,26.8,105.0,-9999.0,'1111122,1111122,1111122' 
LUMCON,ioos:station:LUMCON:102:1,2015-01-08T07:45:00Z,29.1870,-90.6093,0.0,22.1,103.0,-9999.0,'1111122,1111122,1111122' 
LUMCON,ioos:station:LUMCON:102:1,2015-01-08T08:45:00Z,29.1870,-90.6093,0.0,21.1,91.0,-9999.0,'1111122,1111122,1111122' 
LUMCON,ioos:station:LUMCON:102:1,2015-01-08T09:45:00Z,29.1870,-90.6093,0.0,17.8,98.0,-9999.0,'1111122,1111122,1111122' 
LUMCON,ioos:station:LUMCON:102:1,2015-01-08T10:45:00Z,29.1870,-90.6093,0.0,17.2,106.0,-9999.0,'1111122,1111122,1111122' 
LUMCON,ioos:station:LUMCON:102:1,2015-01-08T11:45:00Z,29.1870,-90.6093,0.0,15.6,104.0,-9999.0,'1111122,1111122,1111122' 
LUMCON,ioos:station:LUMCON:102:1,2015-01-08T12:45:00Z,29.1870,-90.6093,0.0,18.7,92.0,-9999.0,'1111122,1111122,1111122' 
LUMCON,ioos:station:LUMCON:102:1,2015-01-08T13:45:00Z,29.1870,-90.6093,0.0,16.2,90.0,-9999.0,'1111122,1111122,1111122' 
LUMCON,ioos:station:LUMCON:102:1,2015-01-08T14:45:00Z,29.1870,-90.6093,0.0,14.3,92.0,-9999.0,'1111122,1111122,1111122' 
LUMCON,ioos:station:LUMCON:102:1,2015-01-08T15:45:00Z,29.1870,-90.6093,0.0,16.8,100.0,-9999.0,'1111122,1111122,1111122' 
LUMCON,ioos:station:LUMCON:102:1,2015-01-08T16:45:00Z,29.1870,-90.6093,0.0,14.4,97.0,-9999.0,'1111122,1111122,1111122' 
LUMCON,ioos:station:LUMCON:102:1,2015-01-08T17:45:00Z,29.1870,-90.6093,0.0,11.6,84.0,-9999.0,'1111122,1111122,1111122' 
LUMCON,ioos:station:LUMCON:102:1,2015-01-08T18:45:00Z,29.1870,-90.6093,0.0,10.0,83.0,-9999.0,'1111122,1111122,1111122' 
LUMCON,ioos:station:LUMCON:102:1,2015-01-08T19:45:00Z,29.1870,-90.6093,0.0,8.0,83.0,-9999.0,'1111122,1111122,1111122' 
LUMCON,ioos:station:LUMCON:102:1,2015-01-08T20:45:00Z,29.1870,-90.6093,0.0,8.8,96.0,-9999.0,'1111122,1111122,1111122' 
LUMCON,ioos:station:LUMCON:102:1,2015-01-08T21:45:00Z,29.1870,-90.6093,0.0,8.9,101.0,-9999.0,'1111122,1111122,1111122' 
LUMCON,ioos:station:LUMCON:102:1,2015-01-08T22:45:00Z,29.1870,-90.6093,0.0,7.1,138.0,-9999.0,'1111122,1111122,1111122' 
LUMCON,ioos:station:LUMCON:102:1,2015-01-08T23:45:00Z,29.1870,-90.6093,0.0,7.6,73.0,-9999.0,'1111122,1111122,1111122' 
LUMCON,ioos:station:LUMCON:102:1,2015-01-09T00:45:00Z,29.1870,-90.6093,0.0,7.8,94.0,-9999.0,'1111122,1111122,1111122' 
LUMCON,ioos:station:LUMCON:102:1,2015-01-09T01:45:00Z,29.1870,-90.6093,0.0,9.9,84.0,-9999.0,'1111122,1111122,1111122' 
LUMCON,ioos:station:LUMCON:102:1,2015-01-09T02:45:00Z,29.1870,-90.6093,0.0,11.3,42.0,-9999.0,'1111122,1111122,1111122' 
LUMCON,ioos:station:LUMCON:102:1,2015-01-09T03:45:00Z,29.1870,-90.6093,0.0,13.2,64.0,-9999.0,'1111122,1111122,1111122' 
LUMCON,ioos:station:LUMCON:102:1,2015-01-09T04:45:00Z,29.1870,-90.6093,0.0,15.3,44.0,-9999.0,'1111122,1111122,1111122' 
LUMCON,ioos:station:LUMCON:102:1,2015-01-09T05:45:00Z,29.1870,-90.6093,0.0,16.1,46.0,-9999.0,'1111122,1111122,1111122' 
LUMCON,ioos:station:LUMCON:102:1,2015-01-09T06:45:00Z,29.1870,-90.6093,0.0,14.6,52.0,-9999.0,'1111122,1111122,1111122' 
LUMCON,ioos:station:LUMCON:102:1,2015-01-09T07:45:00Z,29.1870,-90.6093,0.0,19.6,49.0,-9999.0,'1111122,1111122,1111122' 